Weather History for Lewisburg, WV

Change the Weather History Date:

Monday, September 16, 2013

  Actual Average Record
Temperature  
Mean Temperature 54 °F 62 °F  
Max Temperature 64 °F 75 °F 87 °F (1991)
Min Temperature 44 °F 49 °F 34 °F (2011)
Degree Days  
Heating Degree Days 11    
Month to date heating degree days  
Since 1 July heating degree days  
Cooling Degree Days 0    
Month to date cooling degree days  
Year to date cooling degree days  
Growing Degree Days 4 (Base 50)    
Moisture  
Dew Point 49 °F    
Average Humidity 82    
Maximum Humidity 100    
Minimum Humidity 63    
Precipitation  
Precipitation 0.00 in 0.12 in 1.44 in (1996)
Month to date precipitation 1.72  
Year to date precipitation 29.82  
Snow  
Snow 0.00 in - - ()
Month to date snowfall  
Since 1 July snowfall  
Since 1 September snowfall  
Snow Depth -    
Sea Level Pressure  
Sea Level Pressure 30.22 in    
Wind  
Wind Speed 2 mph (NW)    
Max Wind Speed 9 mph    
Max Gust Speed -    
Visibility 7 miles    
Events Fog , Rain    
T = Trace of Precipitation, MM = Missing Value Source: NWS Daily Summary

Daily Weather History Graph

Daily Weather History Graph

Search for Another Location

Airport:

Trip Planner

Search our weather history database for the weather conditions in past years. The results will help you decide how hot, cold, wet, or windy it might be!

Date:

Astronomy

Sep. 16, 2013 Rise Set
Actual Time 7:04 AM EDT 7:27 PM EDT
Civil Twilight 6:38 AM EDT 7:53 PM EDT
Nautical Twilight 6:07 AM EDT 8:24 PM EDT
Astronomical Twilight 5:35 AM EDT 8:56 PM EDT
Moon 5:33 PM EDT (9/16) 3:51 AM EDT (9/16)
Length of Visible Light 13h 15m
Length of Day
12h 23m
Waxing Gibbous, 90% of the Moon is Illuminated
Sep 16
Waxing Gibbous
Sep 19
Full
Sep 26
Last Quarter
Oct 4
New
Oct 11
First Quarter

Hourly Weather History & Observations

Time (EDT) Temp. Windchill Dew Point Humidity Pressure Visibility Wind Dir Wind Speed Gust Speed Precip Events Conditions
12:15 AM 51.8 °F - 50.0 °F 94% 30.19 in 7.0 mi Calm Calm - N/A   Clear
12:35 AM 51.8 °F - 50.0 °F 94% 30.19 in 1.2 mi Calm Calm - N/A   Mostly Cloudy
12:55 AM 51.8 °F - 50.0 °F 94% 30.19 in 7.0 mi Calm Calm - N/A   Mostly Cloudy
1:15 AM 51.8 °F - 50.0 °F 94% 30.19 in 4.0 mi Calm Calm - N/A   Overcast
1:35 AM 51.8 °F - 50.0 °F 94% 30.19 in 5.0 mi Calm Calm - N/A   Overcast
1:55 AM 51.8 °F - 50.0 °F 94% 30.19 in 1.8 mi Calm Calm - N/A   Mostly Cloudy
2:15 AM 51.8 °F - 50.0 °F 94% 30.19 in 1.2 mi Calm Calm - N/A   Mist
2:35 AM 50.0 °F - 46.4 °F 87% 30.19 in 0.2 mi Calm Calm - N/A Fog Fog
2:55 AM 50.0 °F - 46.4 °F 87% 30.19 in 0.2 mi Calm Calm - N/A Fog Fog
3:15 AM 50.0 °F - 48.2 °F 94% 30.19 in 0.5 mi Calm Calm - N/A Fog Fog
3:35 AM 50.0 °F - 48.2 °F 94% 30.19 in 0.8 mi Calm Calm - N/A   Overcast
3:55 AM 50.0 °F - 48.2 °F 94% 30.18 in 0.5 mi Calm Calm - N/A Fog Fog
4:15 AM 50.0 °F - 46.4 °F 87% 30.17 in 1.2 mi Calm Calm - N/A   Overcast
4:35 AM 50.0 °F - 46.4 °F 87% 30.17 in 7.0 mi Calm Calm - N/A   Scattered Clouds
4:55 AM 50.0 °F - 46.4 °F 87% 30.17 in 7.0 mi Calm Calm - N/A   Clear
5:15 AM 50.0 °F - 46.4 °F 87% 30.17 in 3.0 mi Calm Calm - N/A   Mostly Cloudy
5:35 AM 50.0 °F - 48.2 °F 94% 30.17 in 10.0 mi Calm Calm - N/A   Mostly Cloudy
5:55 AM 50.0 °F - 48.2 °F 94% 30.17 in 10.0 mi Calm Calm - N/A   Overcast
6:15 AM 50.0 °F - 48.2 °F 94% 30.18 in 10.0 mi Calm Calm - N/A   Mostly Cloudy
6:35 AM 50.0 °F - 46.4 °F 87% 30.18 in 10.0 mi Calm Calm - N/A   Scattered Clouds
6:55 AM 50.0 °F - 46.4 °F 87% 30.18 in 1.2 mi Calm Calm - N/A   Mostly Cloudy
7:15 AM 50.0 °F - 46.4 °F 87% 30.18 in 3.0 mi Calm Calm - N/A   Mostly Cloudy
7:35 AM 50.0 °F - 50.0 °F 100% 30.19 in 5.0 mi Calm Calm - N/A   Scattered Clouds
7:55 AM 51.8 °F - 50.0 °F 94% 30.19 in 5.0 mi Calm Calm - N/A   Mostly Cloudy
8:15 AM 51.8 °F - 50.0 °F 94% 30.19 in 4.0 mi Calm Calm - N/A Rain Light Rain
8:35 AM 53.6 °F - 51.8 °F 94% 30.19 in 3.0 mi Calm Calm - N/A Rain Light Rain
8:55 AM 55.4 °F - 53.6 °F 94% 30.20 in 5.0 mi Calm Calm - N/A   Mostly Cloudy
9:15 AM 57.2 °F - 53.6 °F 88% 30.20 in 7.0 mi SSW 3.5 mph - N/A   Overcast
9:35 AM 59.0 °F - 53.6 °F 82% 30.21 in 7.0 mi SW 3.5 mph - N/A Rain Light Rain
9:55 AM 59.0 °F - 55.4 °F 88% 30.21 in 10.0 mi WSW 3.5 mph - N/A   Mostly Cloudy
10:15 AM 59.0 °F - 55.4 °F 88% 30.21 in 10.0 mi WSW 3.5 mph - N/A   Overcast
10:35 AM 59.0 °F - 55.4 °F 88% 30.22 in 7.0 mi WSW 4.6 mph - N/A Rain Rain
10:55 AM 59.0 °F - 55.4 °F 88% 30.22 in 10.0 mi SW 4.6 mph - N/A   Overcast
11:15 AM 60.8 °F - 55.4 °F 82% 30.23 in 10.0 mi SW 5.8 mph - N/A   Overcast
11:35 AM 62.6 °F - 53.6 °F 72% 30.23 in 10.0 mi West 4.6 mph - N/A   Overcast
11:55 AM 62.6 °F - 53.6 °F 72% 30.22 in 10.0 mi West 3.5 mph - N/A   Overcast
12:15 PM 64.4 °F - 51.8 °F 64% 30.23 in 10.0 mi WNW 6.9 mph - N/A   Overcast
12:35 PM 62.6 °F - 51.8 °F 68% 30.23 in 10.0 mi North 6.9 mph - N/A   Overcast
12:55 PM 62.6 °F - 51.8 °F 68% 30.23 in 10.0 mi NW 5.8 mph - N/A   Overcast
1:15 PM 62.6 °F - 51.8 °F 68% 30.23 in 10.0 mi NW 8.1 mph - N/A   Overcast
1:35 PM 62.6 °F - 51.8 °F 68% 30.23 in 10.0 mi NNW 5.8 mph - N/A   Overcast
1:55 PM 62.6 °F - 51.8 °F 68% 30.24 in 10.0 mi NW 6.9 mph - N/A   Overcast
2:15 PM 60.8 °F - 51.8 °F 72% 30.24 in 10.0 mi NW 6.9 mph - N/A   Overcast
2:35 PM 60.8 °F - 51.8 °F 72% 30.23 in 10.0 mi NW 5.8 mph - N/A   Overcast
2:55 PM 62.6 °F - 51.8 °F 68% 30.23 in 10.0 mi WNW 4.6 mph - N/A   Overcast
3:15 PM 62.6 °F - 51.8 °F 68% 30.22 in 10.0 mi NW 4.6 mph - N/A   Overcast
3:35 PM 62.6 °F - 51.8 °F 68% 30.22 in 10.0 mi WNW 3.5 mph - N/A   Overcast
3:55 PM 62.6 °F - 50.0 °F 63% 30.22 in 10.0 mi NNE 5.8 mph - N/A   Overcast
4:15 PM 62.6 °F - 50.0 °F 63% 30.22 in 10.0 mi North 9.2 mph - N/A   Overcast
4:35 PM 60.8 °F - 50.0 °F 68% 30.22 in 10.0 mi North 9.2 mph - N/A   Overcast
4:55 PM 60.8 °F - 50.0 °F 68% 30.23 in 10.0 mi North 5.8 mph - N/A   Overcast
5:15 PM 60.8 °F - 50.0 °F 68% 30.24 in 10.0 mi North 8.1 mph - N/A   Overcast
5:35 PM 59.0 °F - 50.0 °F 72% 30.24 in 10.0 mi NNE 6.9 mph - N/A   Overcast
5:55 PM 59.0 °F - 50.0 °F 72% 30.24 in 10.0 mi NNE 8.1 mph - N/A   Overcast
6:15 PM 60.8 °F - 50.0 °F 68% 30.24 in 10.0 mi North 8.1 mph - N/A   Overcast
6:35 PM 59.0 °F - 50.0 °F 72% 30.25 in 10.0 mi North 4.6 mph - N/A   Overcast
6:55 PM 59.0 °F - 48.2 °F 67% 30.25 in 10.0 mi North 3.5 mph - N/A   Overcast
7:15 PM 59.0 °F - 46.4 °F 63% 30.25 in 10.0 mi NNW 3.5 mph - N/A   Mostly Cloudy
7:35 PM 57.2 °F - 46.4 °F 67% 30.26 in 10.0 mi Calm Calm - N/A   Scattered Clouds
7:55 PM 53.6 °F - 46.4 °F 77% 30.26 in 10.0 mi Calm Calm - N/A   Clear
8:15 PM 53.6 °F - 46.4 °F 77% 30.27 in 10.0 mi Calm Calm - N/A   Mostly Cloudy
8:35 PM 55.4 °F - 46.4 °F 72% 30.28 in 10.0 mi Calm Calm - N/A   Overcast
8:55 PM 51.8 °F - 46.4 °F 82% 30.29 in 10.0 mi Calm Calm - N/A   Mostly Cloudy
9:15 PM 51.8 °F - 48.2 °F 88% 30.29 in 10.0 mi Calm Calm - N/A   Scattered Clouds
9:35 PM 51.8 °F - 46.4 °F 82% 30.30 in 10.0 mi Calm Calm - N/A   Clear
9:55 PM 50.0 °F - 46.4 °F 87% 30.30 in 7.0 mi Calm Calm - N/A   Clear
10:15 PM 50.0 °F - 46.4 °F 87% 30.30 in 5.0 mi Calm Calm - N/A   Clear
10:35 PM 48.2 °F - 46.4 °F 93% 30.30 in 7.0 mi Calm Calm - N/A   Clear
10:55 PM 46.4 °F - 44.6 °F 93% 30.30 in 4.0 mi Calm Calm - N/A   Clear
11:15 PM 46.4 °F - 44.6 °F 93% 30.31 in 7.0 mi Calm Calm - N/A   Clear
11:35 PM 44.6 °F 43.1 °F 42.8 °F 93% 30.32 in 0.2 mi NE 3.5 mph - N/A Fog Fog
11:55 PM 44.6 °F 42.2 °F 42.8 °F 93% 30.32 in 2.0 mi NNE 4.6 mph - N/A   Scattered Clouds